N0RRC Weather Reports


time (UTC)temp
F
wind
direction
speed
knots
gust
knots
rain 1hr
in
rain 24hr
in
rain mn
in
humidity
%
barometer
mb
20260505183655 52 259 6.1 10.4 0.00 0.00 0.00 46 1007.3
20260505182736 53 272 7.8 13.0 0.00 0.00 0.00 44 1007.1
20260505181656 53 311 9.6 14.8 0.00 0.00 0.00 45 1007.1
20260505180655 53 306 10.4 15.6 0.00 0.00 0.00 47 1007.1
20260505175656 52 288 4.3 12.2 0.00 0.00 0.00 49 1006.8
20260505174715 52 293 7.8 19.1 0.00 0.00 0.00 49 1007.1
20260505173657 52 263 6.1 11.3 0.00 0.00 0.00 49 1007.2
20260505172657 53 263 7.0 12.2 0.00 0.00 0.00 50 1006.9
20260505171717 52 264 7.0 17.4 0.00 0.00 0.00 50 1007.0
20260505170657 52 272 7.0 10.4 0.00 0.00 0.00 51 1007.1
20260505165657 51 299 7.0 12.2 0.00 0.00 0.00 51 1007.0
20260505164657 51 301 8.7 13.9 0.00 0.00 0.00 52 1007.1
20260505163657 51 284 7.8 13.9 0.00 0.00 0.00 52 1007.1
20260505162657 51 279 8.7 13.0 0.00 0.00 0.00 48 1007.2
20260505161657 51 263 7.0 16.5 0.00 0.00 0.00 50 1007.1
20260505160657 50 286 7.0 10.4 0.00 0.00 0.00 50 1007.1
20260505152657 50 262 6.1 13.0 0.00 0.00 0.00 55 1006.9
20260505151657 50 304 5.2 9.6 0.00 0.00 0.00 56 1007.0
20260505150657 49 269 7.0 13.0 0.00 0.00 0.00 57 1007.1
20260505124716 45 233 2.6 6.1 0.00 0.00 0.00 63 1007.7
20260505123738 45 244 3.5 6.1 0.00 0.00 0.00 62 1007.6
20260505122656 44 239 1.7 3.5 0.00 0.00 0.00 67 1007.6
20260505121656 43 226 2.6 5.2 0.00 0.00 0.00 66 1007.2
20260505120657 44 248 2.6 4.3 0.00 0.00 0.00 67 1006.9
20260505115656 43 0.0 0.0 0.00 0.00 0.00 65 1006.2
20260505114656 43 0.0 0.0 0.00 0.00 0.00 63 1006.3
20260505113656 41 0.0 0.0 0.00 0.00 0.00 67 1005.9
20260505112656 40 0.0 0.0 0.00 0.00 0.00 68 1006.1
20260505111656 40 0.0 0.0 0.00 0.00 0.00 68 1006.0
20260505110657 40 284 0.0 0.9 0.00 0.00 0.00 66 1006.0
20260505101657 42 284 0.0 1.7 0.00 0.00 0.00 62 1005.6
20260505100657 43 284 0.9 1.7 0.00 0.00 0.00 60 1005.4
20260505095656 43 285 0.9 2.6 0.00 0.00 0.00 60 1005.4
20260505094716 43 287 1.7 3.5 0.00 0.00 0.00 61 1005.6
20260505093656 43 304 2.6 5.2 0.00 0.00 0.00 60 1005.8
20260505092657 44 283 2.6 6.1 0.00 0.00 0.00 60 1005.7
20260505091657 44 289 3.5 7.0 0.00 0.00 0.00 59 1005.4
20260505090656 44 299 4.3 7.0 0.00 0.00 0.00 60 1005.2
20260505085656 44 290 2.6 3.5 0.00 0.00 0.00 60 1005.2
20260505084657 45 286 2.6 5.2 0.00 0.00 0.00 58 1004.8
20260505083656 45 288 4.3 7.0 0.00 0.00 0.00 57 1004.5
20260505082656 46 291 4.3 7.8 0.00 0.00 0.00 56 1004.2
20260505081657 46 314 4.3 7.8 0.00 0.00 0.00 55 1003.9
20260505080656 46 313 4.3 9.6 0.00 0.00 0.00 54 1003.8
20260505075757 46 307 4.3 10.4 0.00 0.00 0.00 55 1003.5
20260505074717 47 319 5.2 11.3 0.00 0.00 0.00 55 1003.5
20260505073656 47 315 7.8 12.2 0.00 0.00 0.00 56 1003.6
20260505072656 47 311 7.0 13.9 0.00 0.00 0.00 57 1003.4
20260505071656 47 322 7.0 11.3 0.00 0.00 0.00 59 1003.6
20260505070657 48 332 5.2 11.3 0.00 0.00 0.00 59 1003.2
20260505065656 48 324 5.2 10.4 0.00 0.00 0.00 58 1003.0
20260505064656 49 329 6.1 9.6 0.00 0.00 0.00 57 1002.9
20260505063656 50 328 7.8 12.2 0.00 0.00 0.00 57 1002.9
20260505062656 50 321 7.8 12.2 0.00 0.00 0.00 58 1003.0
20260505061655 50 301 7.0 9.6 0.00 0.00 0.00 57 1002.9
20260505060656 51 324 5.2 10.4 0.00 0.00 0.00 57 1002.6
20260505055656 51 315 5.2 8.7 0.00 0.00 0.00 57 1002.6
20260505054657 51 316 4.3 10.4 0.00 0.00 0.00 57 1002.5
20260505053657 52 309 4.3 9.6 0.00 0.00 0.00 56 1002.5
20260505052655 52 305 5.2 7.8 0.00 0.00 0.00 56 1002.3
20260505051656 53 310 5.2 11.3 0.00 0.00 0.00 55 1002.0
20260505050655 53 309 5.2 11.3 0.00 0.00 0.00 54 1001.7
20260505041656 56 295 5.2 10.4 0.00 0.00 0.00 50 1000.6
20260505040656 56 287 5.2 8.7 0.00 0.00 0.00 49 1000.7
20260505035657 57 274 3.5 7.8 0.00 0.00 0.00 47 1000.8
20260505034656 58 281 3.5 7.8 0.00 0.00 0.00 46 1000.6
20260505033656 58 285 6.1 8.7 0.00 0.00 0.00 44 1000.4
20260505032657 59 281 7.0 12.2 0.00 0.00 0.00 44 1000.2
20260505031656 59 286 7.8 13.0 0.00 0.00 0.00 46 1000.0
20260505030656 59 284 3.5 7.8 0.00 0.00 0.00 52 999.8
20260505025716 59 271 3.5 7.0 0.00 0.00 0.00 51 999.6
20260505024656 59 282 1.7 3.5 0.00 0.00 0.00 52 998.9
20260505023656 60 284 3.5 7.8 0.00 0.00 0.00 50 999.1
20260505022656 60 277 3.5 7.0 0.00 0.00 0.00 50 999.0
20260505021656 61 287 3.5 7.0 0.00 0.00 0.00 49 998.9
20260505020656 61 283 2.6 5.2 0.00 0.00 0.00 49 998.7
20260505015717 62 274 4.3 9.6 0.00 0.00 0.00 47 998.5
20260505014656 63 292 4.3 13.9 0.00 0.00 0.00 46 998.1
20260505013656 63 296 7.0 12.2 0.00 0.00 0.00 47 997.7
20260505012657 64 297 7.8 13.0 0.00 0.00 0.00 46 997.2
20260505011657 64 295 9.6 12.2 0.00 0.00 0.00 46 997.0
20260505010656 65 299 6.1 11.3 0.00 0.00 0.00 46 996.7
20260505005656 65 301 5.2 11.3 0.00 0.00 0.00 46 996.4
20260505004656 66 303 4.3 9.6 0.00 0.00 0.00 45 996.1
20260505003656 67 304 7.0 13.9 0.00 0.00 0.00 44 996.0
20260505002656 68 299 6.1 10.4 0.00 0.00 0.00 44 996.0
20260505001657 70 299 5.2 8.7 0.00 0.00 0.00 46 996.0
20260505000657 71 292 6.1 10.4 0.00 0.00 0.00 45 995.8
20260504235655 71 298 8.7 16.5 0.00 0.00 0.00 46 995.6
20260504234656 72 293 7.8 14.8 0.00 0.00 0.00 45 995.5
20260504233657 73 290 7.8 12.2 0.00 0.00 0.00 45 995.3
20260504232655 75 299 9.6 14.8 0.00 0.00 0.00 43 995.6
20260504231656 75 268 4.3 7.8 0.00 0.00 0.00 43 995.2
20260504230717 74 268 4.3 8.7 0.00 0.00 0.00 45 995.1
20260504225655 75 254 3.5 8.7 0.00 0.00 0.00 43 995.0
20260504224657 75 272 2.6 9.6 0.00 0.00 0.00 44 995.1
20260504223736 75 269 3.5 7.0 0.00 0.00 0.00 43 995.1
20260504222655 75 253 4.3 8.7 0.00 0.00 0.00 42 995.1
20260504221656 75 255 4.3 9.6 0.00 0.00 0.00 41 995.2
20260504220655 75 265 6.1 12.2 0.00 0.00 0.00 42 995.3
20260504215655 75 248 7.0 9.6 0.00 0.00 0.00 42 995.3
20260504214657 75 241 7.8 11.3 0.00 0.00 0.00 42 995.3
20260504213655 76 248 8.7 15.6 0.00 0.00 0.00 40 995.3
20260504212655 76 243 7.8 13.9 0.00 0.00 0.00 40 995.3
20260504211657 75 246 10.4 15.6 0.00 0.00 0.00 39 995.4
20260504210655 75 245 9.6 15.6 0.00 0.00 0.00 42 995.5
20260504205655 76 252 9.6 16.5 0.00 0.00 0.00 40 995.8
20260504204656 76 260 7.8 14.8 0.00 0.00 0.00 41 995.9
20260504203655 76 248 9.6 13.9 0.00 0.00 0.00 41 996.0
20260504202656 76 240 8.7 13.9 0.00 0.00 0.00 42 996.1
20260504201656 75 245 8.7 15.6 0.00 0.00 0.00 42 996.2
20260504200655 75 233 7.8 14.8 0.00 0.00 0.00 42 996.3
20260504195655 75 238 9.6 17.4 0.00 0.00 0.00 41 996.3
20260504194655 75 245 9.6 19.1 0.00 0.00 0.00 40 996.4
20260504193655 75 253 8.7 16.5 0.00 0.00 0.00 41 996.5
20260504192655 75 242 12.2 19.1 0.00 0.00 0.00 41 996.6
20260504191655 75 235 11.3 18.2 0.00 0.00 0.00 40 996.7
20260504190715 75 257 9.6 16.5 0.00 0.00 0.00 39 996.7
20260504185656 75 231 8.7 17.4 0.00 0.00 0.00 39 996.6
20260504184655 75 240 8.7 15.6 0.00 0.00 0.00 41 996.9